Location: Newark
(16.3678°N, 77.8722°E)
Time: 00:25:07
(UTC+00:00)

Explorer 11/Cluster Stage 4 - Visible Passes

Search period start: 13 December 2019 00:00
Search period end: 23 December 2019 00:00
Orbit: 467 x 1259 km, 28.8° (Epoch: 12 December)

Date Brightness Start Highest point End Pass type
(mag) Time Alt. Az. Time Alt. Az. Time Alt. Az.
13 Dec 9.3 23:23:23 10° SSW 23:29:51 26° SSE 23:36:24 10° E visible
14 Dec 9.1 23:12:11 10° SSW 23:18:57 31° SSE 23:25:57 10° E visible
15 Dec 8.8 23:01:04 10° SSW 23:08:02 36° SSE 23:15:23 10° E visible
16 Dec 8.5 22:52:21 21° SSW 22:57:06 41° SSE 23:04:43 10° E visible
17 Dec 7.6 00:38:22 10° WSW 00:46:29 78° NNW 00:54:39 10° ENE visible
17 Dec 8.2 22:43:38 36° SSW 22:46:12 47° SSE 22:54:01 10° ENE visible
18 Dec 7.6 00:27:38 10° WSW 00:35:38 70° NNW 00:43:49 10° ENE visible
18 Dec 7.8 22:34:42 53° SSE 22:35:17 54° SSE 22:43:14 10° ENE visible
19 Dec 7.6 00:16:59 10° W 00:24:46 63° NNW 00:32:58 10° ENE visible
19 Dec 7.8 22:25:35 56° ESE 22:25:35 56° ESE 22:32:24 10° ENE visible
20 Dec 7.6 00:07:48 17° W 00:13:58 56° NNW 00:22:05 10° ENE visible
20 Dec 8.3 22:16:17 43° E 22:16:17 43° E 22:21:31 10° ENE visible
20 Dec 7.7 23:58:29 24° W 00:03:10 51° NNW 00:11:10 10° ENE visible
21 Dec 8.7 22:06:50 30° ENE 22:06:50 30° ENE 22:10:37 10° ENE visible
21 Dec 7.8 23:49:01 30° WNW 23:52:23 46° NNW 00:00:15 10° NE visible
22 Dec 9.2 21:57:14 21° ENE 21:57:14 21° ENE 21:59:40 10° ENE visible
22 Dec 7.8 23:39:24 35° NW 23:41:39 42° NNW 23:49:20 10° NE visible
